Flag for Switzerland Weather past 2 weeks in Winterthur, Switzerland

Now
28 °F

Passing clouds.


Feels Like: 28 °F
Forecast: 20 / 33 °F
Wind: 2 mph from Southeast

Location: Zurich-Kloten

Current Time: Jan 25, 2015 at 11:58:04 PM

Latest Report: Jan 25, 2015 at 11:20 PM


Visibility: 6 mi

Pressure: 30.39 "Hg

Humidity: 100%

Dew point: 28 °F

Location of WinterthurLocation

Historic Weather in Winterthur — Graph

°F

Winterthur temperature yesterday

Maximum temperature yesterday: 36 °F (at 11:50 AM)
Minimum temperature yesterday: 30 °F (at 8:20 PM)
Average temperature yesterday: 33 °F

Past Weeks' High & Low Weather Summary

 TemperatureHumidityPressure
High54 °F (Jan 10, 11:20 PM)100% (Jan 11, 2:50 PM)30.48 "Hg (Jan 11, 2:50 PM)
Low23 °F (Jan 25, 7:20 AM)33% (Jan 13, 1:50 PM)29.68 "Hg (Jan 16, 2:20 PM)
Average36 °F85%30.02 "Hg
* Reported Jan 10 11:20 PM — Jan 25 10:20 PM, Winterthur, Weather by CustomWeather, © 2014

Note: Actual official high and low records may vary slightly from our data, if they occured in-between our weather recording intervals... More about our weather records

Advertising

Winterthur weather history for previous 24 hours

 ConditionsComfort  
Time TempWeatherWind HumidityBarometerVisibility
10:20 PM
Jan 25
30 °FFog.2 mph93%30.39 "HgN/A
9:50 PM30 °FPassing clouds.1 mph93%30.39 "HgN/A
9:20 PM30 °FPassing clouds.No wind93%30.39 "HgN/A
8:50 PM32 °FPassing clouds.1 mph93%30.39 "HgN/A
8:20 PM30 °FPassing clouds.No wind93%30.39 "HgN/A
7:50 PM32 °FPassing clouds.2 mph87%30.39 "HgN/A
7:20 PM32 °FPassing clouds.2 mph93%30.39 "HgN/A
6:50 PM32 °FPassing clouds.2 mph87%30.39 "HgN/A
6:20 PM32 °FPassing clouds.2 mph87%30.39 "HgN/A
5:50 PM32 °FPassing clouds.2 mph87%30.39 "HgN/A
5:20 PM34 °FPassing clouds.3 mph81%30.39 "HgN/A
4:50 PM34 °FPartly sunny.3 mph81%30.39 "HgN/A
4:20 PM34 °FPartly sunny.2 mph75%30.39 "HgN/A
3:50 PM34 °FPartly sunny.2 mph81%30.39 "HgN/A
3:20 PM34 °FPartly sunny.2 mph81%30.39 "HgN/A
2:50 PM34 °FPartly sunny.1 mph81%30.36 "HgN/A
2:20 PM34 °FPartly sunny.3 mph81%30.36 "HgN/A
1:50 PM34 °FPartly sunny.3 mph81%30.39 "HgN/A
1:20 PM34 °FPartly sunny.3 mph81%30.39 "HgN/A
12:50 PM34 °FPartly sunny.2 mph81%30.39 "HgN/A
12:20 PM34 °FPartly sunny.3 mph81%30.42 "HgN/A
11:50 AM34 °FPartly sunny.3 mph81%30.42 "HgN/A
11:20 AM34 °FPartly sunny.6 mph75%30.39 "HgN/A
10:50 AM32 °FPartly sunny.2 mph87%30.39 "HgN/A
10:20 AM30 °FPartly sunny.3 mph93%30.39 "HgN/A
9:50 AM28 °FPartly sunny.2 mph100%30.39 "HgN/A
9:20 AM27 °FPartly sunny.2 mph93%30.39 "HgN/A
8:50 AM27 °FPartly sunny.2 mph100%30.39 "Hg6 mi
8:20 AM27 °FIce fog.1 mph100%30.36 "Hg3 mi
7:50 AM27 °FPassing clouds.3 mph93%30.36 "Hg3 mi
7:20 AM23 °FPassing clouds.1 mph93%30.36 "Hg1 mi
6:50 AM28 °FPassing clouds.1 mph100%30.33 "Hg3 mi
6:20 AM30 °FFog.No wind93%30.33 "Hg3 mi
5:50 AM30 °FLight snow. Partly cloudy.No wind100%30.30 "Hg3 mi
5:20 AM30 °FLight snow. Partly cloudy.1 mph100%30.30 "Hg2 mi
4:20 AM30 °FLight snow. Partly cloudy.2 mph100%30.30 "Hg1 mi
3:50 AM30 °FLight snow. Passing clouds.1 mph100%30.27 "Hg1 mi
3:20 AM30 °FLight snow. Passing clouds.1 mph100%30.27 "Hg1 mi
2:50 AM30 °FLight snow. Passing clouds.2 mph100%30.27 "Hg1 mi
2:20 AM30 °FLight snow. Passing clouds.2 mph100%30.27 "Hg2 mi
1:50 AM30 °FLight snow. Passing clouds.1 mph100%30.27 "Hg1 mi
12:50 AM30 °FSnow. Passing clouds.No wind100%30.27 "Hg1 mi
12:20 AM30 °FLight snow. Passing clouds.No wind100%30.24 "Hg2 mi
11:50 PM
Jan 24
30 °FLight snow. Passing clouds.No wind93%30.24 "Hg2 mi
11:20 PM30 °FLight snow. Partly cloudy.No wind100%30.24 "Hg2 mi
Weather by CustomWeather, © 2014

See weather overviewHow to use our weather pages